www.pogodaiklimat.ru

Погода и климат >> Архив погоды >> Индия >> Raipur


ПОГОДА в Raipur

  • Прогноз погоды в Raipur
  • Монитор погоды в Raipur
  • Климат города

АРХИВ ПОГОДЫ в Raipur

Время (UTC), дата Ветер
(напр.,м/с)
 
Видим.   Явления Облачность Т
(С)
Тd
(С)
f
(%)
Тe
(С)
Тes
(С)
Комфортность P
(гПа)
Po
(гПа)
Тmin
(С)
Tmax
(С)
R
(мм)
R24
(мм)
S
(см)
03 19.02 штиль 0 4000 м мгла ясно +21.2 +12.4 57 +23 +30 комфорт 1013.6 1014.0 +18.1
06 19.02 Ю 1 4000 м мгла ясно +30.0 +10.4 30 +30 +50 жарко 1012.6 1013.0
09 19.02 З 3 4000 м мгла ясно +32.0 +10.0 26 +32 +40 жарко 1009.1 1009.0
12 19.02 ЮЗ 1 4000 м мгла ясно +31.4 +11.1 29 +32 +32 жарко 1009.1 1009.0 +32.7
15 19.02 штиль 0 4000 м ясно +26.0 +14.3 48 +28 +28 жарко 1011.1 1011.0
03 20.02 штиль 0 4000 м мгла 6/1 600 м
[Sc Ac trans Ci fib]
+21.2 +14.0 63 +24 +28 комфорт 1013.8 1014.0 +20.2
06 20.02 СЗ 1 4000 м мгла ясно +29.2 +12.6 36 +30 +49 жарко 1013.0 1013.0
09 20.02 В 1 4000 м ясно +31.0 +9.9 27 +31 +42 жарко 1009.5 1010.0
12 20.02 штиль 0 4000 м ясно +30.8 +14.0 36 +32 +33 жарко 1009.2 1009.0 +32.5
15 20.02 штиль 0 4000 м ясно +25.6 +15.0 52 +28 +28 жарко 1010.9 1011.0
03 21.02 В 1 4000 м мгла ясно +22.6 +6.1 34 +23 +29 комфорт 1013.2 1013.0 +18.5
06 21.02 штиль 0 4000 м мгла ясно +29.2 +6.8 24 +28 +50 жарко 1012.3 1012.0
09 21.02 С 1 4000 м ясно +32.8 +6.2 19 +31 +43 жарко 1018.4 1018.0
12 21.02 штиль 0 4000 м ясно +31.8 +6.8 21 +30 +30 жарко 1007.9 1008.0 +33.5
15 21.02 штиль 0 4000 м ясно +25.0 +10.7 41 +26 +26 жарко 1010.0 1010.0
03 22.02 ЮЗ 1 2000 м мгла ясно +20.2 +10.7 54 +23 +29 комфорт 1012.5 1013.0 +17.6
06 22.02 Ю 1 4000 м мгла ясно +30.4 +7.2 23 +29 +48 жарко 1011.3 1011.0
09 22.02 З 1 4000 м ясно +34.0 +6.7 18 +32 +44 жарко 1007.4 1007.0
12 22.02 штиль 0 4000 м ясно +32.6 +8.8 23 +31 +32 жарко 1006.9 1007.0 +34.4
15 22.02 штиль 0 4000 м ясно +26.2 +11.0 39 +27 +27 жарко 1009.9 1010.0
03 23.02 Ю 1 4000 м мгла ясно +22.0 +11.7 52 +24 +31 комфорт 1012.4 1012.0 +19.0
06 23.02 Ю 1 4000 м ясно +31.8 +7.4 22 +30 +49 жарко 1011.4 1011.0
09 23.02 З 2 4000 м ясно +34.4 +6.8 18 +32 +43 жарко 1008.1 1008.0
12 23.02 З 1 4000 м ясно +33.8 +8.2 21 +32 +32 жарко 1007.8 1008.0 +35.0
15 23.02 штиль 0 4000 м ясно +27.4 +13.2 42 +29 +29 жарко 1010.1 1010.0
03 24.02 Ю 1 4000 м 1/0
[Ci fib]
+22.2 +11.1 49 +24 +30 комфорт 1014.7 1015.0 +19.8
06 24.02 З 1 4000 м ясно +31.4 +12.6 32 +32 +51 опасность
солнечного
удара
1013.6 1014.0
09 24.02 З 2 4000 м ясно +34.6 +11.2 24 +34 +44 очень
жарко
1010.0 1010.0
12 24.02 З 1 4000 м ясно +34.0 +11.3 25 +34 +34 очень
жарко
1009.5 1010.0 +35.7
15 24.02 штиль 0 4000 м ясно +27.8 +15.0 46 +30 +30 жарко 1012.3 1012.0
03 25.02 штиль 0 4000 м ясно +22.2 +14.4 61 +25 +33 комфорт 1015.1 1015.0 +20.8
06 25.02 С 3 4000 м ясно +31.4 +13.0 33 +32 +46 жарко 1014.4 1014.0
09 25.02 СЗ 1 4000 м ясно +35.0 +12.9 26 +35 +47 очень
жарко
1010.2 1010.0
12 25.02 штиль 0 4000 м 3/0
[Ac trans Ci fib]
+34.2 +13.1 28 +35 +35 очень
жарко
1009.5 1010.0 +35.7
15 25.02 штиль 0 4000 м ясно +29.0 +16.5 47 +32 +32 душно 1011.3 1011.0
21 25.02 штиль 0 3400 м 4/4 1000 м
[]
+23.6 +9.2 40 +24 +24 комфорт 1013.6 1014.0

 

Местоположение метеостанции Raipur (Chhattisgarh, Индия): широта 21.23 долгота 81.65 высота над уровнем моря 298 м.

В архиве по умолчанию представлена погода в Raipur за последнюю неделю. Архивные данные за месяц целиком и за предыдущие месяцы, начиная с января 2011 года, Вы можете получить, выбрав интересующий диапазон дат из раскрывающегося списка и нажав кнопку "Ввод!".

Внимание! Время в таблицах - всемирное. Для получения местного времени необходимо прибавить поправку, которая в Raipur равна 5.5 ч.

Смотрите также архив погоды в соседних городах и на ближайших метеорологических станциях:

Погода в Durg (Chhattisgarh, Индия) (39 км)
Погода в Rajnandgaon (Chhattisgarh, Индия) (66 км)
Погода в Bilaspur (Chhattisgarh, Индия) (111 км)
Погода в Raipur Airport (Chhattisgarh, Индия) (111 км)
Погода в Malanjkhand (Madhya Pradesh, Индия) (130 км)
Погода в Gondia (Maharashtra, Индия) (153 км)
Погода в Pendra Road (Chhattisgarh, Индия) (173 км)
Погода в Bramhapuri (Maharashtra, Индия) (200 км)
Погода в Mandla (Madhya Pradesh, Индия) (200 км)
Погода в Titlagarh (Orissa, Индия) (200 км)

Пояснения к столбцам:

Ветер - указаны скорость ветра в м/с - средняя за 10 мин, порывы в срок и между сроками (в фигурных скобках) и направление, откуда дует ветер: С - северный, СВ - северо-восточный, В - восточный, ЮВ - юго-восточный, Ю - южный, ЮЗ - юго-западный, З - западный, СЗ - северо-западный.
Видимость - горизонтальная дальность видимости в метрах или километрах. При видимости от 1 до 10 км при отсутствии осадков обычно наблюдается дымка, при ухудшении видимости до 1 км и менее - туман. В сухую погоду видимость может ухудшаться дымом, пылью или мглою.
Явления - указаны атмосферные явления, наблюдавшиеся в срок или в последний час перед сроком; фигурными скобками обозначены явления, наблюдавшиеся между сроками (за 1-3 часа до срока); квадратными скобками обозначены град или гололедные отложения с указанием их диаметра в мм.
Облачность - указаны через наклонную черту общая и нижняя облачность в баллах и высота нижней границы облаков в метрах; квадратными скобками обозначены формы облаков: Ci - перистые, Cs - перисто-слоистые, Cc - перисто-кучевые, Ac - высококучевые, As - высокослоистые, Sc - слоисто-кучевые, Ns - слоисто-дождевые, Cu - кучевые, Cb - кучево-дождевые. Подробнее классификацию облаков см. в Атласе облаков (PDF).
T - Температура воздуха - температура, измеренная на высоте 2 м над землей.
Td - Температура точки росы - температура, при понижении до которой содержащийся в воздухе водяной пар достигнет насыщения.
f - Относительная влажность воздуха - влажноcть воздуха, измеренная на высоте 2 м над землей.
Te - Эффективная температура - температура, которую ощущает одетый по сезону человек в тени. Характеристика душности погоды. При расчете учитывается влияние влажности воздуха и скорости ветра на теплоощущения человека.
Tes - Эффективная температура на солнце - температура, которую ощущает человек, с поправкой на солнечный нагрев. Характеристика знойности погоды. Зависит от высоты солнца над горизонтом, облачности и скорости ветра. Ночью, в пасмурную погоду, а также при ветре 12 м/с и более поправка равна нулю.
P - Атмосферное давление - приведенное к уровню моря атмосферное давление.
Po - Атмосферное давление - измеренное на уровне метеостанции атмосферное давление.
Tmin - Минимальная температура - минимум температуры воздуха на высоте 2 м над землей.
Tmax - Максимальная температура - максимум температуры воздуха на высоте 2 м над землей.
R - Количество осадков - Количество выпавших осадков за период времени, мм. При наведении курсора мыши на число - период времени, за который выпало указанное количество осадков.
R24 - Количество осадков - Количество выпавших осадков за 24 часа, мм.
S - Снежный покров - Высота снежного покрова, см. При наведении курсора мыши на число - состояние снежного покрова и степень покрытия местности в баллах.